FW7044 Weather Reports


Display with metric or nautical units.
time (UTC)temp
F
wind
direction
speed
MPH
gust
MPH
rain 1hr
in
rain 24hr
in
rain mn
in
humidity
%
barometer
mb
20260508073212 68 277 0.0 0.0 0.00 0.00 0.00 95 1014.5
20260508072708 68 277 0.0 0.0 0.00 0.00 0.00 94 1014.5
20260508072205 67 277 0.0 0.0 0.00 0.00 0.00 94 1014.4
20260508071702 67 277 0.0 0.0 0.00 0.00 0.00 94 1014.7
20260508071201 67 277 0.0 0.0 0.00 0.00 0.00 94 1014.6
20260508070658 67 277 0.0 0.0 0.00 0.00 0.00 94 1014.7
20260508070156 68 277 0.0 0.0 0.00 0.00 0.00 94 1014.6
20260508065653 68 277 0.0 0.0 0.00 0.00 0.00 94 1014.7
20260508065151 68 277 0.0 0.0 0.00 0.00 0.00 94 1014.9
20260508064648 68 277 0.0 0.0 0.00 0.00 0.00 94 1014.7
20260508064146 68 277 0.0 0.0 0.00 0.00 0.00 94 1014.7
20260508063644 68 277 0.0 0.0 0.00 0.00 0.00 94 1014.7
20260508063141 68 277 0.0 0.0 0.00 0.00 0.00 93 1014.8
20260508062639 69 277 0.0 0.0 0.00 0.00 0.00 93 1015.0
20260508062135 69 277 0.0 0.0 0.00 0.00 0.00 93 1014.8
20260508061633 69 277 0.0 0.0 0.00 0.00 0.00 93 1014.8
20260508061130 69 277 0.0 0.0 0.00 0.00 0.00 92 1015.0
20260508060626 69 277 0.0 0.0 0.00 0.00 0.00 91 1014.9
20260508060124 69 277 0.0 0.0 0.00 0.00 0.00 91 1015.1
20260508055619 69 277 0.0 0.0 0.00 0.00 0.00 91 1015.0
20260508055116 70 277 0.0 0.0 0.00 0.00 0.00 91 1015.2
20260508054613 70 277 0.0 0.0 0.00 0.00 0.00 91 1015.3
20260508054110 70 249 0.0 0.0 0.00 0.00 0.00 91 1015.2
20260508053607 70 250 0.0 0.0 0.00 0.00 0.00 91 1015.3
20260508053105 70 250 0.0 0.0 0.00 0.00 0.00 91 1015.3
20260508052602 70 250 0.0 0.0 0.00 0.00 0.00 90 1015.3
20260508052059 71 250 0.0 0.0 0.00 0.00 0.00 91 1015.4
20260508051555 70 250 0.0 0.0 0.00 0.00 0.00 90 1015.3
20260508051051 71 250 0.0 0.0 0.00 0.00 0.00 90 1015.1
20260508050547 71 250 0.0 0.0 0.00 0.00 0.00 90 1015.2
20260508050045 71 250 0.0 0.0 0.00 0.00 0.00 90 1015.1
20260508045540 71 250 0.0 0.0 0.00 0.00 0.00 89 1015.1
20260508045038 71 250 0.0 0.0 0.00 0.00 0.00 90 1015.2
20260508044535 71 250 0.0 0.0 0.00 0.00 0.00 91 1015.3
20260508044031 72 249 0.0 0.0 0.00 0.00 0.00 91 1015.2
20260508043528 72 251 0.0 0.0 0.00 0.00 0.00 90 1015.1
20260508043026 72 251 0.0 0.0 0.00 0.00 0.00 90 1015.0
20260508042522 72 251 0.0 0.0 0.00 0.00 0.00 91 1015.0
20260508042020 72 251 0.0 0.0 0.00 0.00 0.00 92 1015.1
20260508041516 72 251 0.0 0.0 0.00 0.00 0.00 93 1015.1
20260508041012 72 251 0.0 0.0 0.00 0.00 0.00 94 1015.0
20260508040510 72 251 0.0 0.0 0.00 0.00 0.00 94 1015.1
20260508040007 73 251 0.0 0.0 0.00 0.00 0.00 95 1015.0
20260508035504 73 251 0.0 0.0 0.00 0.00 0.00 95 1015.1
20260508035000 74 251 0.0 0.0 0.00 0.00 0.00 95 1015.1
20260508034458 74 250 0.0 0.0 0.00 0.00 0.00 95 1015.1
20260508033954 75 251 0.0 0.0 0.00 0.00 0.00 95 1015.1
20260508033453 75 251 0.0 0.0 0.00 0.00 0.00 95 1015.2
20260508032950 75 251 0.0 0.0 0.00 0.00 0.00 95 1014.9
20260508032447 76 251 0.0 0.0 0.00 0.00 0.00 95 1015.2
20260508031944 76 250 0.0 0.0 0.00 0.00 0.00 95 1014.8
20260508031441 77 280 0.0 0.0 0.00 0.00 0.00 94 1015.2
20260508030937 77 281 0.0 0.0 0.00 0.00 0.00 93 1014.9
20260508030434 77 306 0.0 0.0 0.00 0.00 0.00 93 1015.0
20260508025931 78 273 0.0 0.0 0.00 0.00 0.00 92 1014.7
20260508025427 78 269 0.0 0.0 0.00 0.00 0.00 92 1014.8
20260508024924 78 308 0.0 0.0 0.00 0.00 0.00 92 1014.7
20260508024421 78 296 0.0 0.0 0.00 0.00 0.00 91 1014.7
20260508023917 78 231 0.0 0.0 0.00 0.00 0.00 91 1014.7
20260508023415 78 185 1.0 1.0 0.00 0.00 0.00 90 1014.7
20260508022912 79 293 0.0 0.0 0.00 0.00 0.00 90 1014.5
20260508022407 79 251 0.0 0.0 0.00 0.00 0.00 90 1014.6
20260508021904 80 267 0.0 0.0 0.00 0.00 0.00 89 1014.5
20260508021400 80 244 1.0 1.0 0.00 0.00 0.00 88 1014.4
20260508020856 80 207 2.0 2.0 0.00 0.00 0.00 88 1014.4
20260508020354 80 272 0.0 0.0 0.00 0.00 0.00 87 1014.5
20260508015852 80 215 1.0 1.0 0.00 0.00 0.00 88 1014.5
20260508015349 80 189 1.0 1.0 0.00 0.00 0.00 88 1014.4
20260508014845 80 259 0.0 0.0 0.00 0.00 0.00 88 1014.4
20260508014337 80 264 0.0 0.0 0.00 0.00 0.00 87 1014.4
20260508013837 80 278 0.0 0.0 0.00 0.00 0.00 87 1014.3
20260508013334 81 241 0.0 0.0 0.00 0.00 0.00 87 1014.3
20260508012832 81 214 2.0 3.0 0.00 0.00 0.00 86 1014.3
20260508012329 81 235 0.0 1.0 0.00 0.00 0.00 86 1014.3
20260508011826 81 208 0.0 1.0 0.00 0.00 0.00 85 1014.3
20260508011324 81 171 1.0 1.0 0.00 0.00 0.00 85 1014.3
20260508010821 82 132 3.0 3.0 0.00 0.00 0.00 84 1014.2
20260508010319 82 129 2.0 2.0 0.00 0.00 0.00 84 1014.1
20260508005815 82 231 0.0 0.0 0.00 0.00 0.00 84 1013.9
20260508005312 82 164 0.0 0.0 0.00 0.00 0.00 83 1014.1
20260508004808 82 241 0.0 1.0 0.00 0.00 0.00 83 1014.0
20260508004304 83 185 2.0 3.0 0.00 0.00 0.00 82 1014.0
20260508003801 83 185 2.0 2.0 0.00 0.00 0.00 82 1013.9
20260508003259 83 181 2.0 2.0 0.00 0.00 0.00 82 1014.1
20260508002755 83 180 3.0 3.0 0.00 0.00 0.00 81 1013.9
20260508002252 84 144 1.0 1.0 0.00 0.00 0.00 81 1013.9
20260508001748 84 126 1.0 2.0 0.00 0.00 0.00 80 1013.9
20260508001244 84 153 3.0 5.0 0.00 0.00 0.00 80 1013.9
20260508000740 84 128 2.0 2.0 0.00 0.00 0.00 79 1013.8
20260508000238 85 103 1.0 1.0 0.00 0.00 0.00 79 1014.0
20260507235734 85 179 1.0 1.0 0.00 0.00 0.00 78 1014.1
20260507235231 86 105 2.0 3.0 0.00 0.00 0.00 77 1013.8
20260507234728 86 120 4.0 5.0 0.00 0.00 0.00 76 1013.7
20260507234225 86 152 5.0 6.0 0.00 0.00 0.00 76 1013.8
20260507233721 86 136 3.0 3.0 0.00 0.00 0.00 75 1013.8
20260507233219 87 99 6.0 7.0 0.00 0.00 0.00 74 1013.9
20260507232716 87 135 4.0 5.0 0.00 0.00 0.00 74 1013.6
20260507232213 88 119 1.0 1.0 0.00 0.00 0.00 72 1013.6
20260507231710 88 65 0.0 0.0 0.00 0.00 0.00 72 1013.6
20260507231207 89 109 6.0 7.0 0.00 0.00 0.00 71 1013.7
20260507230703 89 119 4.0 6.0 0.00 0.00 0.00 70 1013.5
20260507230201 89 207 2.0 3.0 0.00 0.00 0.00 71 1013.4
20260507225700 89 101 5.0 8.0 0.00 0.00 0.00 70 1013.5
20260507225157 89 100 5.0 6.0 0.00 0.00 0.00 70 1013.4
20260507224653 91 85 5.0 6.0 0.00 0.00 0.00 68 1013.3
20260507224149 91 137 4.0 7.0 0.00 0.00 0.00 67 1013.2
20260507223645 92 109 4.0 6.0 0.00 0.00 0.00 65 1013.2
20260507223143 92 115 5.0 7.0 0.00 0.00 0.00 64 1013.3
20260507222639 96 120 2.0 2.0 0.00 0.00 0.00 57 1013.4
20260507222136 96 190 2.0 3.0 0.00 0.00 0.00 48 1013.3
20260507221632 98 283 0.0 1.0 0.00 0.00 0.00 46 1013.2
20260507221129 98 283 1.0 1.0 0.00 0.00 0.00 44 1013.3
20260507220626 98 262 3.0 3.0 0.00 0.00 0.00 43 1013.2
20260507220124 99 307 2.0 2.0 0.00 0.00 0.00 44 1013.2
20260507215619 99 270 0.0 1.0 0.00 0.00 0.00 45 1013.1
20260507215117 99 250 5.0 7.0 0.00 0.00 0.00 44 1013.3
20260507214614 99 176 0.0 0.0 0.00 0.00 0.00 43 1013.5
20260507214110 99 301 1.0 1.0 0.00 0.00 0.00 44 1013.5
20260507213607 100 258 2.0 3.0 0.00 0.00 0.00 43 1013.5
20260507213104 100 277 1.0 1.0 0.00 0.00 0.00 42 1013.4
20260507212600 100 303 0.0 0.0 0.00 0.00 0.00 41 1013.4
20260507212057 100 247 2.0 3.0 0.00 0.00 0.00 41 1013.1
20260507211553 99 242 0.0 1.0 0.00 0.00 0.00 40 1013.4
20260507211050 98 324 2.0 2.0 0.00 0.00 0.00 41 1013.3
20260507210547 99 262 2.0 3.0 0.00 0.00 0.00 40 1013.4
20260507210044 99 297 1.0 2.0 0.00 0.00 0.00 42 1013.6
20260507205540 99 340 0.0 0.0 0.00 0.00 0.00 41 1013.5
20260507205037 99 240 2.0 3.0 0.00 0.00 0.00 43 1013.7
20260507204533 99 228 3.0 5.0 0.00 0.00 0.00 42 1013.7
20260507204031 98 261 0.0 1.0 0.00 0.00 0.00 42 1013.6
20260507203529 99 247 1.0 2.0 0.00 0.00 0.00 42 1013.7
20260507203026 99 312 2.0 2.0 0.00 0.00 0.00 42 1014.0
20260507202521 100 280 1.0 3.0 0.00 0.00 0.00 41 1013.8
20260507202018 99 275 0.0 1.0 0.00 0.00 0.00 43 1013.9
20260507201514 100 240 1.0 1.0 0.00 0.00 0.00 43 1013.9
20260507201010 101 247 2.0 3.0 0.00 0.00 0.00 44 1014.0
20260507200505 99 300 1.0 2.0 0.00 0.00 0.00 46 1014.0
20260507200001 98 301 1.0 2.0 0.00 0.00 0.00 45 1014.1
20260507195459 100 253 0.0 0.0 0.00 0.00 0.00 44 1014.2
20260507194956 100 327 1.0 2.0 0.00 0.00 0.00 44 1014.3
20260507194453 98 272 3.0 3.0 0.00 0.00 0.00 46 1014.3
20260507193948 99 260 3.0 5.0 0.00 0.00 0.00 45 1014.3
20260507193446 98 299 2.0 2.0 0.00 0.00 0.00 44 1014.4
20260507192942 96 275 2.0 3.0 0.00 0.00 0.00 47 1014.8
20260507192438 98 314 2.0 2.0 0.00 0.00 0.00 44 1014.5
20260507191936 98 287 2.0 2.0 0.00 0.00 0.00 43 1014.7
20260507191432 99 237 5.0 6.0 0.00 0.00 0.00 43 1014.8
20260507190928 98 196 4.0 6.0 0.00 0.00 0.00 42 1014.7
20260507190426 98 288 0.0 1.0 0.00 0.00 0.00 44 1014.9
20260507185925 98 296 3.0 3.0 0.00 0.00 0.00 45 1014.9
20260507185422 95 309 1.0 2.0 0.00 0.00 0.00 50 1014.9
20260507184919 96 137 1.0 1.0 0.00 0.00 0.00 48 1015.0
20260507184416 96 282 2.0 3.0 0.00 0.00 0.00 52 1015.3
20260507183914 95 115 0.0 0.0 0.00 0.00 0.00 51 1015.4
20260507183410 95 228 0.0 0.0 0.00 0.00 0.00 50 1015.4
20260507182908 96 202 3.0 5.0 0.00 0.00 0.00 51 1015.5
20260507182403 96 309 1.0 1.0 0.00 0.00 0.00 53 1015.5
20260507181900 96 207 1.0 2.0 0.00 0.00 0.00 53 1015.7
20260507181356 96 314 1.0 1.0 0.00 0.00 0.00 54 1015.9
20260507180853 99 253 1.0 2.0 0.00 0.00 0.00 48 1015.9
20260507180350 97 319 2.0 3.0 0.00 0.00 0.00 49 1015.8
20260507175845 95 322 2.0 2.0 0.00 0.00 0.00 51 1015.9
20260507175343 95 284 1.0 1.0 0.00 0.00 0.00 53 1015.9
20260507174840 95 240 3.0 5.0 0.00 0.00 0.00 52 1016.0
20260507174337 95 175 7.0 11.0 0.00 0.00 0.00 54 1015.9
20260507173835 93 308 1.0 2.0 0.00 0.00 0.00 56 1016.1
20260507173332 96 322 2.0 2.0 0.00 0.00 0.00 54 1016.0
20260507172828 96 271 2.0 3.0 0.00 0.00 0.00 55 1016.1
20260507172325 94 192 2.0 3.0 0.00 0.00 0.00 54 1016.0
20260507171821 94 251 2.0 2.0 0.00 0.00 0.00 58 1016.2
20260507171318 96 279 2.0 2.0 0.00 0.00 0.00 55 1016.3
20260507170815 94 273 2.0 3.0 0.00 0.00 0.00 57 1016.2
20260507170311 95 224 2.0 3.0 0.00 0.00 0.00 58 1016.1
20260507165807 95 246 1.0 2.0 0.00 0.00 0.00 56 1016.2
20260507165306 93 255 2.0 2.0 0.00 0.00 0.00 60 1016.4
20260507164759 95 290 3.0 5.0 0.00 0.00 0.00 56 1016.5
20260507164257 93 359 1.0 2.0 0.00 0.00 0.00 59 1016.2
20260507163754 92 314 1.0 1.0 0.00 0.00 0.00 61 1016.6
20260507163251 93 298 2.0 3.0 0.00 0.00 0.00 60 1016.5
20260507162747 92 250 4.0 5.0 0.00 0.00 0.00 62 1016.8
20260507162243 93 296 3.0 3.0 0.00 0.00 0.00 60 1016.6
20260507161740 94 321 0.0 0.0 0.00 0.00 0.00 60 1016.8
20260507161237 94 278 2.0 2.0 0.00 0.00 0.00 60 1016.6
20260507160732 92 58 0.0 1.0 0.00 0.00 0.00 61 1016.6
20260507160229 93 230 6.0 8.0 0.00 0.00 0.00 62 1016.8
20260507155725 92 319 1.0 1.0 0.00 0.00 0.00 62 1016.7
20260507155221 91 225 2.0 2.0 0.00 0.00 0.00 64 1016.7
20260507154718 91 202 5.0 8.0 0.00 0.00 0.00 64 1017.0
20260507154216 92 215 1.0 2.0 0.00 0.00 0.00 63 1016.9
20260507153712 91 247 3.0 3.0 0.00 0.00 0.00 65 1017.0
20260507153209 90 294 0.0 0.0 0.00 0.00 0.00 64 1017.0
20260507152705 92 253 5.0 7.0 0.00 0.00 0.00 64 1017.1
20260507152201 91 288 2.0 2.0 0.00 0.00 0.00 64 1017.1
20260507151657 91 249 2.0 2.0 0.00 0.00 0.00 64 1017.1
20260507151154 91 335 0.0 0.0 0.00 0.00 0.00 65 1017.1
20260507150651 88 259 3.0 5.0 0.00 0.00 0.00 67 1017.3
20260507150148 89 197 4.0 7.0 0.00 0.00 0.00 67 1017.3
20260507145643 88 223 3.0 3.0 0.00 0.00 0.00 69 1017.1
20260507145141 89 172 3.0 3.0 0.00 0.00 0.00 68 1017.3
20260507144637 88 318 2.0 2.0 0.00 0.00 0.00 69 1017.3
20260507144136 88 268 1.0 2.0 0.00 0.00 0.00 69 1017.0
20260507143632 88 128 3.0 3.0 0.00 0.00 0.00 70 1017.3
20260507143129 88 261 1.0 1.0 0.00 0.00 0.00 70 1017.3
20260507142624 87 221 3.0 5.0 0.00 0.00 0.00 71 1017.5
20260507142122 87 129 3.0 3.0 0.00 0.00 0.00 72 1017.3
20260507141618 86 299 1.0 2.0 0.00 0.00 0.00 73 1017.3
20260507141115 87 192 3.0 3.0 0.00 0.00 0.00 71 1017.4
20260507140611 85 300 1.0 2.0 0.00 0.00 0.00 73 1017.3
20260507140109 86 232 3.0 5.0 0.00 0.00 0.00 73 1017.2
20260507135606 86 266 2.0 5.0 0.00 0.00 0.00 71 1017.3
20260507135103 85 197 3.0 5.0 0.00 0.00 0.00 72 1017.4
20260507134559 86 220 3.0 5.0 0.00 0.00 0.00 70 1017.5
20260507134055 84 278 2.0 2.0 0.00 0.00 0.00 73 1017.2
20260507133551 84 307 0.0 1.0 0.00 0.00 0.00 74 1017.6
20260507133049 84 324 1.0 2.0 0.00 0.00 0.00 76 1017.4
20260507132546 84 288 0.0 1.0 0.00 0.00 0.00 78 1017.5
20260507132042 83 198 3.0 5.0 0.00 0.00 0.00 78 1017.4
20260507131539 82 211 1.0 2.0 0.00 0.00 0.00 79 1017.7
20260507131037 83 262 2.0 2.0 0.00 0.00 0.00 81 1017.6
20260507130533 82 245 2.0 2.0 0.00 0.00 0.00 81 1017.7
20260507130032 82 240 3.0 5.0 0.00 0.00 0.00 81 1017.4
20260507125530 81 171 2.0 2.0 0.00 0.00 0.00 84 1017.5
20260507125027 80 158 2.0 3.0 0.00 0.00 0.00 85 1017.4
20260507124523 80 226 1.0 1.0 0.00 0.00 0.00 86 1017.4
20260507124021 79 278 2.0 2.0 0.00 0.00 0.00 87 1017.4
20260507123519 78 281 1.0 1.0 0.00 0.00 0.00 89 1017.6
20260507123015 77 309 0.0 0.0 0.00 0.00 0.00 93 1017.4
20260507122510 75 294 0.0 0.0 0.00 0.00 0.00 96 1017.2
20260507122007 75 286 0.0 1.0 0.00 0.00 0.00 98 1017.5
20260507121502 74 280 2.0 2.0 0.00 0.00 0.00 99 1017.4
20260507120958 73 294 0.0 0.0 0.00 0.00 0.00 99 1017.3
20260507120455 73 315 0.0 0.0 0.00 0.00 0.00 99 1017.3
20260507115952 72 307 0.0 0.0 0.00 0.00 0.00 99 1017.6
20260507115448 72 279 0.0 1.0 0.00 0.00 0.00 99 1017.4
20260507114944 71 324 0.0 0.0 0.00 0.00 0.00 99 1017.4
20260507114440 71 309 0.0 0.0 0.00 0.00 0.00 99 1017.1
20260507113938 69 310 0.0 0.0 0.00 0.00 0.00 99 1017.2
20260507113434 69 309 0.0 0.0 0.00 0.00 0.00 99 1017.2
20260507112932 68 327 0.0 0.0 0.00 0.00 0.00 99 1017.2
20260507112429 68 328 0.0 0.0 0.00 0.00 0.00 99 1017.1
20260507111926 68 328 0.0 0.0 0.00 0.00 0.00 99 1017.2
20260507111423 68 328 0.0 0.0 0.00 0.00 0.00 99 1017.1
20260507110920 67 328 0.0 0.0 0.00 0.00 0.00 99 1017.0
20260507110416 67 328 0.0 0.0 0.00 0.00 0.00 99 1016.9
20260507105913 67 319 0.0 0.0 0.00 0.00 0.00 99 1017.0
20260507105409 67 284 0.0 0.0 0.00 0.00 0.00 99 1016.8
20260507104906 67 284 0.0 0.0 0.00 0.00 0.00 99 1017.0
20260507104402 67 284 0.0 0.0 0.00 0.00 0.00 99 1017.0
20260507103858 67 284 0.0 0.0 0.00 0.00 0.00 99 1016.8
20260507103355 67 284 0.0 0.0 0.00 0.00 0.00 99 1016.5
20260507102851 66 284 0.0 0.0 0.00 0.00 0.00 99 1016.5
20260507102348 66 284 0.0 0.0 0.00 0.00 0.00 99 1016.6
20260507101844 66 284 0.0 0.0 0.00 0.00 0.00 99 1016.4
20260507101344 67 284 0.0 0.0 0.00 0.00 0.00 99 1016.4
20260507100842 66 283 0.0 0.0 0.00 0.00 0.00 99 1016.4
20260507100340 67 283 0.0 0.0 0.00 0.00 0.00 99 1016.1
20260507095838 67 283 0.0 0.0 0.00 0.00 0.00 99 1016.1
20260507095334 67 283 0.0 0.0 0.00 0.00 0.00 99 1016.1
20260507094831 67 283 0.0 0.0 0.00 0.00 0.00 99 1016.0
20260507094328 67 283 0.0 0.0 0.00 0.00 0.00 99 1016.1
20260507093825 67 283 0.0 0.0 0.00 0.00 0.00 99 1016.0
20260507093324 67 283 0.0 0.0 0.00 0.00 0.00 99 1016.1
20260507092821 67 283 0.0 0.0 0.00 0.00 0.00 99 1016.0
20260507092318 67 283 0.0 0.0 0.00 0.00 0.00 99 1015.9
20260507091814 67 282 0.0 0.0 0.00 0.00 0.00 99 1015.8
20260507091310 67 282 0.0 0.0 0.00 0.00 0.00 99 1015.8
20260507090805 67 283 0.0 0.0 0.00 0.00 0.00 99 1015.9
20260507090302 67 283 0.0 0.0 0.00 0.00 0.00 99 1015.8
20260507085759 68 283 0.0 0.0 0.00 0.00 0.00 99 1015.7
20260507085256 68 282 0.0 0.0 0.00 0.00 0.00 99 1015.5
20260507084753 68 282 0.0 0.0 0.00 0.00 0.00 99 1015.8
20260507084249 67 285 0.0 0.0 0.00 0.00 0.00 99 1015.7
20260507083747 67 284 0.0 0.0 0.00 0.00 0.00 99 1015.7
20260507083244 67 293 0.0 0.0 0.00 0.00 0.00 99 1015.4
20260507082739 67 293 0.0 0.0 0.00 0.00 0.00 99 1015.4
20260507082235 67 296 0.0 0.0 0.00 0.00 0.00 99 1015.6
20260507081732 67 296 0.0 0.0 0.00 0.00 0.00 99 1015.8
20260507081228 67 296 0.0 0.0 0.00 0.00 0.00 99 1015.7
20260507080725 68 296 0.0 0.0 0.00 0.00 0.00 99 1015.6
20260507080221 68 296 0.0 0.0 0.00 0.00 0.00 99 1015.7
20260507075717 68 295 0.0 0.0 0.00 0.00 0.00 99 1015.7
20260507075214 68 293 0.0 0.0 0.00 0.00 0.00 99 1015.5
20260507074710 68 293 0.0 0.0 0.00 0.00 0.00 99 1015.5
20260507074208 68 293 0.0 0.0 0.00 0.00 0.00 99 1015.9
20260507073704 68 293 0.0 0.0 0.00 0.00 0.00 99 1015.8